Location: Unspecified
(42.2600°N, 0.0000°E)
Time: 10:16:29
(UTC+00:00)

Envisat - Visible Passes

Search period start: 17 October 2019 00:00
Search period end: 27 October 2019 00:00
Orbit: 764 x 766 km, 98.1° (Epoch: 17 October)

Date Brightness Start Highest point End Pass type
(mag) Time Alt. Az. Time Alt. Az. Time Alt. Az.
17 Oct 3.1 17:42:08 10° SSE 17:47:06 57° ENE 17:52:05 10° N visible
17 Oct 5.8 19:23:11 10° SW 19:26:28 17° W 19:29:46 10° NW visible
18 Oct 4.6 18:44:43 10° SSW 18:49:25 37° W 18:54:08 10° NNW visible
19 Oct 3.1 18:07:28 10° SSE 18:12:33 83° WSW 18:17:39 10° NNW visible
20 Oct 3.3 17:31:04 10° SE 17:35:52 45° ENE 17:40:42 10° N visible
20 Oct 5.5 19:11:15 10° SW 19:15:06 22° W 19:18:59 10° NW visible
21 Oct 6.3 05:40:46 10° NE 05:43:38 15° E 05:46:29 10° SE visible
21 Oct 4.1 18:33:13 10° S 18:38:05 47° W 18:43:00 10° NNW visible
22 Oct 2.9 17:56:14 10° SSE 18:01:17 79° ENE 18:06:23 10° N visible
22 Oct 6.2 19:38:56 10° WSW 19:40:53 12° W 19:42:52 10° WNW visible
23 Oct 5.1 18:59:28 10° SSW 19:03:45 27° W 19:08:03 10° NW visible
24 Oct 6.6 05:30:32 10° ENE 05:32:14 12° E 05:33:56 10° ESE visible
24 Oct 3.6 18:21:47 10° S 18:26:48 60° W 18:31:50 10° NNW visible
25 Oct 3.0 17:45:03 10° SSE 17:50:03 63° ENE 17:55:05 10° N visible
25 Oct 5.9 19:26:30 10° SW 19:29:29 16° W 19:32:30 10° NW visible
26 Oct 6.0 05:54:14 10° NE 05:58:02 21° E 06:01:48 10° SE visible
26 Oct 4.7 18:47:49 10° SSW 18:52:24 34° W 18:57:01 10° NNW visible
